Melville, NY (11747)

5:17 AM EDT on May 05, 2015 (GMT -0400)
Lone Pine Poultry Farm | | Change Station
CLOSE
Current Station
Personal Weather Station
Location: Melville, NY
Elevation: 135 ft
Nearby Weather Stations

Elev 135 ft 40.78 °N, 73.39 °W | Updated 2 minutes ago

Clear
Clear
52.8 °F
Feels Like 52.8 °F
N
0.0
Wind Variable Wind from North
Gusts 1.0 mph

Today
High -- | Low -- °F
--% Chance of Precip.
Yesterday
High -- | Low -- °F
Precip. -- in
5:47 AM 7:53 PM
Full, 98% visible
Pressure 30.17 in
Visibility 10.0 miles
Clouds Clear
Dew Point 49 °F
Humidity 86%
Rainfall 0.00 in
Snow Depth Not available.
UV 0 out of 12
Pollen 11.50 out of 12
Air Quality Not available.
Flu Activity Widespread
METAR KFRG 050853Z AUTO 00000KT 10SM CLR 13/09 A3017 RMK AO2 SLP214 T01280089 55004

More Conditions Fewer Conditions

Pressure 30.17 in
Visibility 10.0 miles
Clouds Clear
Dew Point 49 °F
Humidity 86%
Rainfall 0.00 in
Snow Depth Not available.
UV 0 out of 12
Pollen 11.50 out of 12
Air Quality Not available.
Flu Activity Widespread
METAR KFRG 050853Z AUTO 00000KT 10SM CLR 13/09 A3017 RMK AO2 SLP214 T01280089 55004

More Conditions Fewer Conditions

Nepal has a long way to go to dig out and rebuild from a devastating earthquake. We have teamed up with several charities and organizations to make contributing to the relief effort as easy as possible.
How you can help: Portlight Strategies | Red Cross

10-Day Weather Forecast

Almanac

Astronomy

May. 05, 2015 Rise Set
Actual Time
Civil Twilight
Nautical Twilight
Astronomical Twilight
Moon
Length of Visible Light
Length of Day
Tomorrow will be .
, % of the Moon is Illuminated

Today's Extremes

State Highs State Lows

Community

WunderPhotos

Upload Photos

1,818,824 photos uploaded!

WunderBlogs® & News

Nearby

Air Quality

  Air Quality AQ Index Pollutant
Not available.

Snow Depth

Station Depth Elevation

Earthquake Activity

City Distance Mag. Time & Date
Minimum magnitude displayed is 2.5.

Coastal Water Temperatures

Place Temperature

Stations

Nearby Weather Stations

Station Location Temp. Windchill Dew Point Humidity Wind Precip. Elev Updated Type